Raton, NM

8:32 PM MST on February 21, 2018 (GMT -0700)
Raton Municipal-Crews

Weather History for KRTN - September, 2012

Change the Weather History Date:

Saturday, September 15, 2012

  Actual Average (KTAD) Record (KTAD)
Temperature  
Mean Temperature 56 °F -  
Max Temperature 81 °F 78 °F 93 °F (1978)
Min Temperature 33 °F 49 °F 37 °F (1951)
Degree Days  
Heating Degree Days 8    
Growing Degree Days 6 (Base 50)    
Moisture  
Dew Point 29 °F    
Average Humidity 45    
Maximum Humidity 92    
Minimum Humidity 9    
Precipitation  
Precipitation 0.00 in - - ()
Sea Level Pressure  
Sea Level Pressure 30.17 in    
Wind  
Wind Speed 5 mph (NE)    
Max Wind Speed 14 mph    
Max Gust Speed 23 mph    
Visibility 10 miles    
Events      
Averages and records for this station are not official NWS values.
T = Trace of Precipitation, MM = Missing Value Source: NWS Daily Summary

Daily Weather History Graph

Daily Weather History Graph

Search for Another Location

Airport or City:

Trip Planner

Search our weather history database for the weather conditions in past years. The results will help you decide how hot, cold, wet, or windy it might be!

Date:

Astronomy

Sep. 15, 2012 Rise Set
Actual Time 6:40 AM MDT 7:04 PM MDT
Civil Twilight 6:14 AM MDT 7:30 PM MDT
Nautical Twilight 5:44 AM MDT 8:00 PM MDT
Astronomical Twilight 5:13 AM MDT 8:31 PM MDT
Moon 6:13 AM MDT (9/15) 6:38 PM MDT (9/15)
Length of Visible Light 13h 15m
Length of Day
12h 23m
Waning Crescent, 0% of the Moon is Illuminated
Sep 15
Waning Crescent
Sep 15
New
Sep 22
First Quarter
Sep 29
Full
Oct 8
Last Quarter

Hourly Weather History & Observations

Time (MDT) Temp. Windchill Dew Point Humidity Pressure Visibility Wind Dir Wind Speed Gust Speed Precip Events Conditions
12:53 AM 41.0 °F 38.0 °F 33.1 °F 73% 30.29 in 10.0 mi NE 4.6 mph - N/A   Clear
1:53 AM 43.0 °F - 32.0 °F 65% 30.28 in 10.0 mi Calm Calm - N/A   Clear
2:53 AM 39.0 °F 35.7 °F 32.0 °F 76% 30.28 in 10.0 mi NE 4.6 mph - N/A   Clear
3:53 AM 37.0 °F 33.3 °F 32.0 °F 82% 30.27 in 10.0 mi ENE 4.6 mph - N/A   Clear
4:53 AM 36.0 °F 32.1 °F 33.1 °F 89% 30.27 in 10.0 mi ENE 4.6 mph - N/A   Clear
5:53 AM 37.0 °F 33.3 °F 30.9 °F 79% 30.25 in 10.0 mi ENE 4.6 mph - N/A   Clear
6:53 AM 33.1 °F 26.9 °F 30.9 °F 92% 30.27 in 10.0 mi ENE 6.9 mph - N/A   Clear
7:53 AM 39.0 °F 34.8 °F 34.0 °F 82% 30.27 in 10.0 mi East 5.8 mph - N/A   Clear
8:53 AM 46.9 °F - 36.0 °F 66% 30.24 in 10.0 mi ENE 5.8 mph - N/A   Clear
9:53 AM 55.9 °F - 34.0 °F 44% 30.21 in 10.0 mi ENE 3.5 mph - N/A   Clear
10:53 AM 61.0 °F - 34.0 °F 36% 30.19 in 10.0 mi Variable 4.6 mph - N/A   Clear
11:53 AM 66.9 °F - 34.0 °F 30% 30.16 in 10.0 mi SSW 4.6 mph - N/A   Clear
12:53 PM 70.0 °F - 33.1 °F 26% 30.14 in 10.0 mi Variable 3.5 mph - N/A   Clear
1:53 PM 75.0 °F - 30.9 °F 20% 30.09 in 10.0 mi Variable 5.8 mph - N/A   Clear
2:53 PM 78.1 °F - 26.1 °F 15% 30.07 in 10.0 mi Calm Calm - N/A   Clear
3:53 PM 80.1 °F - 16.0 °F 9% 30.04 in 10.0 mi NE 13.8 mph 23.0 mph N/A   Clear
4:53 PM 78.1 °F - 17.1 °F 10% 30.05 in 10.0 mi NE 12.7 mph - N/A   Clear
5:53 PM 75.0 °F - 18.0 °F 12% 30.06 in 10.0 mi ENE 11.5 mph - N/A   Clear
6:53 PM 68.0 °F - 21.9 °F 17% 30.10 in 10.0 mi ENE 8.1 mph - N/A   Clear
7:53 PM 63.0 °F - 23.0 °F 22% 30.12 in 10.0 mi NNE 3.5 mph - N/A   Clear
8:53 PM 55.0 °F - 25.0 °F 31% 30.14 in 10.0 mi Calm Calm - N/A   Clear
9:53 PM 55.0 °F - 26.1 °F 33% 30.11 in 10.0 mi West 6.9 mph - N/A   Clear
10:53 PM 55.0 °F - 27.0 °F 34% 30.09 in 10.0 mi Calm Calm - N/A   Clear
11:53 PM 48.0 °F - 28.0 °F 46% 30.09 in 10.0 mi North 6.9 mph - N/A   Clear